Volver al catálogo

STARLINK-34412

ActivoComunicacionesVLEO
NORAD 66132·PAYLOAD·🇺🇸 United States

Lanzado Oct 22, 2025 desde Vandenberg Space Force Base

Loading…

Próximos Pases (próximas 24 horas)

TLE

ActualizadoSource: CelesTrak SupGP

Época: Sep 14, 2026, 14:49 UTC

1 66132C 25237U   26257.61784722 -.00028863  00000+0 -85305-3 0  2575
2 66132  53.1569 239.1451 0001400  90.2948  50.4864 15.34394725    12

Sigue STARLINK-34412 en tiempo real con AllMySat

Download on the App Store